GW5290 Weather Reports


time (UTC)temp
C
wind
direction
speed
KPH
gust
KPH
rain 1hr
cm
rain 24hr
cm
rain mn
cm
humidity
%
barometer
mb
20260507085503 7 346 1.6 6.4 0.00 1.02 0.25 89 1005.6
20260507085004 7 16 1.6 6.4 0.00 1.02 0.25 89 1005.4
20260507084520 7 50 0.0 8.0 0.00 1.02 0.25 90 1005.8
20260507084004 7 325 1.6 8.0 0.00 1.02 0.25 90 1005.9
20260507083505 8 268 0.0 6.4 0.00 1.02 0.25 90 1005.7
20260507083020 8 286 3.2 12.9 0.00 1.02 0.25 89 1005.5
20260507082504 8 30 3.2 12.9 0.00 1.02 0.25 89 1005.2
20260507082005 8 298 3.2 12.9 0.00 1.02 0.25 90 1004.9
20260507081520 8 322 1.6 12.9 0.00 1.02 0.25 90 1005.1
20260507081003 8 341 3.2 12.9 0.00 1.02 0.25 90 1005.2
20260507080507 8 273 1.6 14.5 0.00 1.02 0.25 92 1005.5
20260507080019 8 96 3.2 14.5 0.00 1.02 0.25 91 1005.3
20260507075503 8 30 3.2 11.3 0.00 1.02 0.25 92 1005.0
20260507075006 8 352 1.6 6.4 0.00 1.02 0.25 93 1005.0
20260507074523 8 339 1.6 4.8 0.00 1.02 0.25 94 1004.8
20260507074001 8 360 0.0 6.4 0.00 1.02 0.25 94 1004.9
20260507073506 8 316 1.6 6.4 0.00 1.02 0.25 94 1005.0
20260507073024 8 333 1.6 4.8 0.00 1.02 0.25 95 1004.8
20260507072503 8 300 0.0 8.0 0.00 1.02 0.25 95 1004.9
20260507072007 8 236 1.6 8.0 0.00 1.02 0.25 95 1004.9
20260507071525 8 284 0.0 1.6 0.00 1.02 0.25 95 1004.7
20260507071002 8 352 0.0 3.2 0.00 1.02 0.25 95 1004.8
20260507070507 8 326 0.0 6.4 0.00 1.02 0.25 95 1004.8
20260507070008 9 306 0.0 6.4 0.00 1.02 0.25 95 1004.6
20260507065505 9 329 0.0 6.4 0.00 1.02 0.25 95 1004.6
20260507065013 9 360 0.0 3.2 0.00 1.02 0.25 95 1004.6
20260507064503 9 360 0.0 3.2 0.00 1.02 0.25 95 1004.4
20260507064003 9 338 0.0 3.2 0.00 1.02 0.25 95 1004.4
20260507063507 9 25 0.0 3.2 0.00 1.02 0.25 94 1004.3
20260507063004 9 35 0.0 4.8 0.00 1.02 0.25 94 1004.5
20260507062503 9 281 0.0 4.8 0.00 1.02 0.25 95 1004.5
20260507062006 9 288 0.0 6.4 0.00 1.02 0.25 95 1004.2
20260507061507 9 331 0.0 6.4 0.00 1.02 0.25 94 1004.1
20260507061006 9 13 0.0 4.8 0.03 1.02 0.25 94 1004.0
20260507060505 9 273 0.0 6.4 0.03 1.02 0.25 94 1004.2
20260507060013 9 286 1.6 6.4 0.03 1.02 0.25 94 1004.2
20260507055506 9 17 1.6 4.8 0.03 1.02 0.25 94 1004.0
20260507055011 10 40 3.2 14.5 0.03 1.02 0.25 94 1004.1
20260507054506 10 360 1.6 14.5 0.03 1.02 0.25 94 1004.2
20260507054007 10 326 3.2 12.9 0.03 1.02 0.25 94 1003.9
20260507053508 10 17 1.6 11.3 0.05 1.02 0.25 94 1004.3
20260507053010 10 340 3.2 16.1 0.05 1.02 0.25 94 1004.2
20260507052506 10 167 1.6 19.3 0.10 1.02 0.25 95 1004.1
20260507052012 10 9 4.8 19.3 0.13 1.02 0.25 95 1004.2
20260507051513 10 40 6.4 16.1 0.20 1.02 0.25 95 1003.9
20260507051008 10 28 1.6 9.7 0.23 0.99 0.23 96 1004.0
20260507050514 11 71 3.2 12.9 0.23 0.99 0.23 95 1004.2
20260507050021 11 325 3.2 12.9 0.23 0.99 0.23 95 1004.0
20260507045507 11 352 1.6 9.7 0.23 0.99 0.23 96 1003.8
20260507045007 11 17 1.6 9.7 0.23 0.99 0.23 96 1003.7
20260507044511 11 5 3.2 9.7 0.23 0.99 0.23 96 1003.8
20260507044010 11 9 1.6 9.7 0.23 0.99 0.23 96 1003.9
20260507043507 11 324 1.6 12.9 0.20 0.97 0.20 96 1003.8
20260507043014 11 5 3.2 12.9 0.20 0.97 0.20 96 1003.6
20260507042508 11 42 3.2 14.5 0.15 0.91 0.15 97 1003.9
20260507042003 11 49 4.8 14.5 0.13 0.89 0.13 97 1003.9
20260507041514 11 342 4.8 11.3 0.05 0.81 0.05 96 1004.0
20260507041008 11 14 3.2 6.4 0.00 0.76 0.00 96 1003.9
20260507040507 11 254 1.6 3.2 0.00 0.76 0.00 96 1003.4
20260507040016 11 244 0.0 3.2 0.00 0.76 0.00 96 1003.3
20260507035508 11 240 0.0 4.8 0.00 0.76 0.76 96 1003.1
20260507035008 11 205 0.0 4.8 0.00 0.76 0.76 96 1003.1
20260507034520 11 150 0.0 1.6 0.00 0.76 0.76 96 1002.9
20260507034010 11 163 0.0 1.6 0.00 0.76 0.76 96 1002.9
20260507033503 11 163 0.0 3.2 0.00 0.76 0.76 96 1003.0
20260507033021 11 99 0.0 3.2 0.00 0.76 0.76 96 1002.7
20260507032513 11 99 0.0 1.6 0.00 0.76 0.76 96 1002.8
20260507032006 11 99 0.0 1.6 0.00 0.76 0.76 96 1002.9
20260507031521 10 99 0.0 1.6 0.00 0.76 0.76 96 1003.0
20260507031014 10 83 0.0 1.6 0.00 0.76 0.76 96 1002.9
20260507030507 10 97 0.0 1.6 0.00 0.76 0.76 96 1003.0
20260507030018 10 97 0.0 1.6 0.00 0.76 0.76 96 1003.0
20260507025508 10 97 0.0 3.2 0.00 0.76 0.76 96 1003.0
20260507025003 10 97 0.0 3.2 0.00 0.76 0.76 96 1003.0
20260507024522 10 46 0.0 3.2 0.03 0.76 0.76 96 1003.0
20260507024007 10 82 0.0 3.2 0.03 0.76 0.76 96 1003.1
20260507023507 10 130 0.0 1.6 0.03 0.76 0.76 96 1003.2
20260507023022 10 154 0.0 1.6 0.03 0.76 0.76 96 1003.3
20260507022510 10 154 0.0 1.6 0.05 0.76 0.76 96 1003.4
20260507022008 10 178 0.0 4.8 0.05 0.76 0.76 96 1003.4
20260507021522 10 184 0.0 4.8 0.05 0.76 0.76 96 1003.5
20260507021008 10 123 0.0 1.6 0.05 0.76 0.76 96 1003.5
20260507020508 10 119 0.0 3.2 0.05 0.76 0.76 96 1003.5
20260507020024 10 212 0.0 4.8 0.05 0.76 0.76 96 1003.6
20260507015514 10 204 1.6 4.8 0.05 0.76 0.76 96 1003.6
20260507015006 10 165 0.0 4.8 0.08 0.76 0.76 96 1003.8
20260507014528 10 200 1.6 4.8 0.05 0.74 0.74 96 1003.9
20260507014004 10 181 0.0 4.8 0.05 0.74 0.74 96 1003.9
20260507013508 10 158 1.6 6.4 0.05 0.74 0.74 95 1004.1
20260507013033 10 169 1.6 6.4 0.05 0.74 0.74 95 1004.0
20260507012503 11 168 1.6 8.0 0.03 0.71 0.71 95 1004.0
20260507012009 11 194 1.6 8.0 0.03 0.71 0.71 95 1004.1
20260507011531 11 216 1.6 4.8 0.03 0.71 0.71 96 1004.1
20260507011005 11 171 1.6 6.4 0.03 0.71 0.71 96 1004.2
20260507010510 11 198 1.6 6.4 0.03 0.71 0.71 96 1004.2
20260507010034 11 207 1.6 14.5 0.03 0.71 0.71 96 1004.2
20260507005506 11 175 3.2 17.7 0.03 0.71 0.71 96 1004.2
20260507005014 11 186 3.2 20.9 0.00 0.69 0.69 96 1004.2
20260507004524 11 192 4.8 20.9 0.00 0.69 0.69 96 1004.1
20260507004007 11 174 3.2 9.7 0.00 0.69 0.69 96 1004.3
20260507003509 11 182 1.6 14.5 0.00 0.69 0.69 96 1004.4
20260507003026 11 186 1.6 14.5 0.00 0.69 0.69 95 1004.2
20260507002506 11 158 1.6 6.4 0.00 0.69 0.69 96 1004.2
20260507002011 11 190 1.6 9.7 0.00 0.69 0.69 96 1004.2
20260507001528 11 170 3.2 12.9 0.00 0.69 0.69 96 1004.2
20260507001007 11 134 3.2 12.9 0.00 0.69 0.69 96 1004.3
20260507000511 11 196 1.6 11.3 0.00 0.69 0.69 95 1004.2
20260507000028 11 172 3.2 9.7 0.00 0.69 0.69 95 1004.3
20260506235507 11 171 3.2 9.7 0.00 0.69 0.69 95 1004.3
20260506235010 11 205 1.6 6.4 0.00 0.69 0.69 95 1004.1
20260506234526 11 170 1.6 6.4 0.00 0.69 0.69 95 1004.1
20260506234006 11 146 1.6 6.4 0.00 0.69 0.69 95 1004.0
20260506233510 11 182 1.6 9.7 0.00 0.69 0.69 95 1004.1
20260506233008 11 183 3.2 9.7 0.03 0.69 0.69 95 1004.3
20260506232508 11 193 3.2 6.4 0.03 0.69 0.69 95 1004.3
20260506232009 11 207 1.6 6.4 0.03 0.69 0.69 95 1004.3
20260506231510 11 167 1.6 9.7 0.03 0.69 0.69 94 1004.3
20260506231007 11 202 1.6 9.7 0.03 0.69 0.69 94 1004.4
20260506230504 11 182 1.6 6.4 0.05 0.69 0.69 94 1004.4
20260506230010 11 185 1.6 6.4 0.05 0.69 0.69 94 1004.4
20260506225508 11 162 1.6 6.4 0.05 0.69 0.69 94 1004.6
20260506225006 11 190 1.6 6.4 0.08 0.69 0.69 95 1004.6
20260506224512 11 175 1.6 8.0 0.08 0.69 0.69 95 1004.6
20260506224006 11 186 0.0 8.0 0.08 0.69 0.69 95 1004.7
20260506223503 11 185 1.6 8.0 0.10 0.69 0.69 95 1004.7
20260506223017 11 161 1.6 9.7 0.10 0.66 0.66 95 1004.8
20260506222509 11 174 3.2 9.7 0.10 0.66 0.66 95 1004.7
20260506222006 11 194 3.2 9.7 0.10 0.66 0.66 95 1004.9
20260506221513 11 136 1.6 17.7 0.13 0.66 0.66 95 1004.8
20260506221011 11 134 3.2 17.7 0.20 0.66 0.66 95 1004.9
20260506220503 11 196 3.2 9.7 0.20 0.64 0.64 95 1004.9
20260506220014 11 174 3.2 8.0 0.28 0.64 0.64 95 1004.9
20260506215510 11 160 1.6 8.0 0.28 0.64 0.64 95 1005.0
20260506215004 11 163 1.6 6.4 0.28 0.61 0.61 95 1005.1
20260506214517 11 152 1.6 8.0 0.28 0.61 0.61 94 1005.1
20260506214007 11 186 1.6 8.0 0.30 0.61 0.61 94 1005.0
20260506213502 11 176 1.6 8.0 0.28 0.58 0.58 94 1005.1
20260506213018 11 327 3.2 8.0 0.25 0.56 0.56 94 1005.1
20260506212507 11 181 3.2 8.0 0.28 0.56 0.56 94 1005.2
20260506212004 11 169 3.2 11.3 0.28 0.56 0.56 94 1005.1
20260506211522 11 205 1.6 11.3 0.25 0.53 0.53 94 1005.3
20260506211011 11 174 1.6 8.0 0.18 0.46 0.46 93 1005.4
20260506210504 11 141 1.6 6.4 0.15 0.43 0.43 93 1005.4
20260506210019 11 206 1.6 6.4 0.10 0.36 0.36 93 1005.5
20260506205511 11 194 1.6 6.4 0.10 0.36 0.36 93 1005.4
20260506205005 11 275 1.6 6.4 0.10 0.33 0.33 93 1005.3
20260506204519 11 159 1.6 6.4 0.18 0.33 0.33 93 1005.3
20260506204011 11 175 1.6 6.4 0.18 0.30 0.30 93 1005.3
20260506203507 12 154 1.6 6.4 0.18 0.30 0.30 93 1005.3
20260506203033 12 180 1.6 6.4 0.20 0.30 0.30 93 1005.3
20260506202503 12 175 1.6 6.4 0.18 0.28 0.28 93 1005.4
20260506202009 12 162 1.6 6.4 0.18 0.28 0.28 93 1005.3
20260506201522 12 175 1.6 6.4 0.20 0.28 0.28 93 1005.3
20260506201007 12 171 1.6 4.8 0.23 0.28 0.28 93 1005.5
20260506200509 12 167 1.6 3.2 0.23 0.28 0.28 93 1005.4
20260506200024 12 177 0.0 4.8 0.23 0.25 0.25 93 1005.5
20260506195508 12 179 1.6 11.3 0.23 0.25 0.25 93 1005.7
20260506195006 12 167 1.6 11.3 0.20 0.23 0.23 92 1005.7
20260506194526 12 97 1.6 11.3 0.15 0.15 0.15 91 1006.1
20260506194003 12 153 0.0 6.4 0.13 0.13 0.13 91 1006.0
20260506193508 12 160 1.6 4.8 0.13 0.13 0.13 91 1006.1
20260506193023 12 155 1.6 9.7 0.10 0.10 0.10 92 1005.9
20260506192507 12 160 0.0 9.7 0.10 0.10 0.10 92 1005.9
20260506192014 12 189 1.6 8.0 0.10 0.10 0.10 92 1006.0
20260506191524 12 163 4.8 12.9 0.08 0.08 0.08 92 1006.0
20260506191006 12 182 1.6 12.9 0.05 0.05 0.05 91 1006.0
20260506190509 12 198 3.2 11.3 0.05 0.05 0.05 90 1006.3
20260506190024 12 241 1.6 6.4 0.03 0.03 0.03 89 1005.9
20260506185507 12 171 0.0 4.8 0.03 0.03 0.03 89 1005.9
20260506185009 12 169 1.6 4.8 0.03 0.03 0.03 88 1005.9
20260506184529 12 219 1.6 11.3 0.00 0.00 0.00 87 1005.8
20260506184009 12 163 1.6 12.9 0.00 0.00 0.00 86 1005.9
20260506183510 12 198 3.2 12.9 0.00 0.00 0.00 85 1005.9
20260506183026 12 188 1.6 6.4 0.00 0.00 0.00 84 1005.9
20260506182507 12 170 1.6 6.4 0.00 0.00 0.00 84 1005.9
20260506182010 12 136 1.6 4.8 0.00 0.00 0.00 84 1005.9
20260506181525 12 175 1.6 6.4 0.00 0.00 0.00 84 1005.9
20260506181007 12 184 1.6 6.4 0.00 0.00 0.00 84 1006.0
20260506180509 12 184 1.6 6.4 0.00 0.00 0.00 84 1006.1
20260506180030 12 173 1.6 6.4 0.00 0.00 0.00 84 1006.1
20260506175509 12 164 0.0 4.8 0.00 0.00 0.00 84 1006.1
20260506175012 12 204 1.6 12.9 0.00 0.00 0.00 84 1006.1
20260506174508 12 148 1.6 12.9 0.00 0.00 0.00 84 1006.2
20260506174009 12 182 1.6 6.4 0.00 0.00 0.00 84 1006.2
20260506173512 12 132 1.6 9.7 0.00 0.00 0.00 84 1006.3
20260506173017 12 169 1.6 9.7 0.00 0.00 0.00 83 1006.4
20260506172507 12 121 1.6 8.0 0.00 0.00 0.00 83 1006.4
20260506172010 12 192 1.6 6.4 0.00 0.00 0.00 83 1006.6
20260506171514 12 157 1.6 4.8 0.00 0.00 0.00 82 1006.6
20260506171008 12 173 1.6 4.8 0.00 0.00 0.00 82 1006.7
20260506170513 13 161 0.0 6.4 0.00 0.00 0.00 80 1006.8
20260506170013 13 175 1.6 6.4 0.00 0.00 0.00 79 1006.9
20260506165508 13 163 1.6 6.4 0.00 0.00 0.00 79 1007.0
20260506165010 14 158 1.6 6.4 0.00 0.00 0.00 79 1007.1
20260506164514 14 180 1.6 6.4 0.00 0.00 0.00 79 1007.1
20260506164011 14 155 1.6 6.4 0.00 0.00 0.00 80 1007.1
20260506163509 14 157 1.6 6.4 0.00 0.00 0.00 79 1007.3
20260506163025 14 76 1.6 12.9 0.00 0.00 0.00 80 1007.3
20260506162506 14 199 1.6 12.9 0.00 0.00 0.00 80 1007.5
20260506162011 15 160 1.6 8.0 0.00 0.00 0.00 80 1007.7
20260506161518 14 210 3.2 8.0 0.00 0.00 0.00 80 1007.7
20260506161010 14 153 3.2 8.0 0.00 0.00 0.00 80 1007.8
20260506160513 14 198 3.2 8.0 0.00 0.00 0.00 80 1007.8
20260506160021 14 164 1.6 8.0 0.00 0.00 0.00 80 1007.9
20260506155510 14 163 1.6 6.4 0.00 0.00 0.00 81 1008.0
20260506155009 14 127 1.6 6.4 0.00 0.00 0.00 81 1008.2
20260506154521 14 130 1.6 6.4 0.00 0.00 0.00 81 1008.0
20260506154018 14 69 1.6 8.0 0.00 0.00 0.00 81 1008.0
20260506153516 13 133 1.6 8.0 0.00 0.00 0.00 81 1008.1
20260506153020 14 159 1.6 8.0 0.00 0.00 0.00 81 1008.1
20260506152508 14 180 1.6 6.4 0.00 0.00 0.00 81 1008.3
20260506152012 14 212 1.6 8.0 0.00 0.00 0.00 81 1008.2
20260506151523 14 196 1.6 8.0 0.00 0.00 0.00 81 1008.1
20260506151008 14 175 1.6 8.0 0.00 0.00 0.00 81 1008.1
20260506150507 14 197 3.2 6.4 0.00 0.00 0.00 81 1008.2
20260506150020 14 195 3.2 9.7 0.00 0.00 0.00 81 1008.0
20260506145511 14 181 3.2 9.7 0.00 0.00 0.00 81 1007.9
20260506145009 14 172 3.2 9.7 0.00 0.00 0.00 81 1007.8
20260506144522 14 200 3.2 9.7 0.00 0.00 0.00 82 1007.7
20260506144003 14 182 3.2 9.7 0.00 0.00 0.00 82 1007.7
20260506143508 13 182 3.2 6.4 0.00 0.00 0.00 82 1007.7
20260506143003 13 173 1.6 6.4 0.00 0.00 0.00 82 1007.7
20260506142506 13 206 1.6 8.0 0.00 0.00 0.00 82 1007.8
20260506142010 13 171 3.2 8.0 0.00 0.00 0.00 81 1007.8
20260506141505 13 180 1.6 6.4 0.00 0.00 0.00 82 1008.0
20260506141011 13 182 1.6 6.4 0.00 0.00 0.00 82 1008.1
20260506140506 13 192 1.6 6.4 0.00 0.00 0.00 83 1008.3
20260506140004 13 179 1.6 6.4 0.00 0.00 0.00 83 1008.4
20260506135507 13 178 1.6 6.4 0.00 0.00 0.00 83 1008.4
20260506135008 13 156 1.6 4.8 0.00 0.00 0.00 83 1008.2
20260506134504 13 173 1.6 4.8 0.00 0.00 0.00 84 1008.2
20260506134008 13 178 1.6 4.8 0.00 0.00 0.00 83 1008.3
20260506133507 13 151 1.6 4.8 0.00 0.00 0.00 82 1008.3
20260506133006 13 171 1.6 4.8 0.00 0.00 0.00 82 1008.3
20260506132511 13 158 1.6 4.8 0.00 0.00 0.00 83 1008.1
20260506132007 13 155 0.0 4.8 0.00 0.00 0.00 82 1008.1
20260506131507 13 157 1.6 4.8 0.00 0.00 0.00 82 1008.0
20260506131008 13 161 0.0 4.8 0.00 0.00 0.00 82 1008.2
20260506130507 13 134 1.6 4.8 0.00 0.00 0.00 81 1008.1
20260506130009 13 172 1.6 4.8 0.00 0.00 0.00 80 1008.1
20260506125506 14 175 1.6 6.4 0.00 0.00 0.00 80 1008.1
20260506125007 13 13 1.6 6.4 0.00 0.00 0.00 81 1008.1
20260506124508 13 185 0.0 8.0 0.00 0.00 0.00 82 1008.1
20260506124007 13 171 0.0 8.0 0.00 0.00 0.00 82 1008.2
20260506123504 13 114 1.6 8.0 0.00 0.00 0.00 83 1008.2
20260506123012 13 175 0.0 4.8 0.00 0.00 0.00 82 1008.2
20260506122507 13 155 0.0 4.8 0.00 0.00 0.00 83 1008.2
20260506122003 13 184 0.0 4.8 0.00 0.00 0.00 84 1008.3
20260506121513 12 215 1.6 4.8 0.00 0.00 0.00 84 1008.3
20260506121011 12 189 0.0 3.2 0.00 0.00 0.00 83 1008.4
20260506120502 12 180 0.0 3.2 0.00 0.00 0.00 84 1008.3
20260506120017 12 173 0.0 3.2 0.00 0.00 0.00 84 1008.3
20260506115516 12 150 0.0 6.4 0.00 0.00 0.00 84 1008.5
20260506115002 12 143 0.0 6.4 0.00 0.00 0.00 84 1008.6
20260506114516 12 162 0.0 3.2 0.00 0.00 0.00 85 1008.6
20260506114012 12 162 0.0 3.2 0.00 0.00 0.00 85 1008.5
20260506113506 12 221 0.0 4.8 0.00 0.00 0.00 84 1008.9
20260506113014 12 130 0.0 4.8 0.00 0.00 0.00 85 1008.6
20260506112510 12 119 0.0 3.2 0.00 0.00 0.00 85 1008.6
20260506112003 11 115 0.0 3.2 0.00 0.00 0.00 86 1008.6
20260506111513 11 150 0.0 1.6 0.00 0.00 0.00 87 1008.8
20260506111009 11 150 0.0 1.6 0.00 0.00 0.00 87 1008.8
20260506110505 11 150 0.0 1.6 0.00 0.00 0.00 86 1008.7
20260506110021 11 150 0.0 1.6 0.00 0.00 0.00 87 1008.6
20260506105507 11 150 0.0 1.6 0.00 0.00 0.00 87 1008.7
20260506105005 11 150 0.0 1.6 0.00 0.00 0.00 87 1008.6
20260506104518 11 150 0.0 1.6 0.00 0.00 0.00 87 1008.7
20260506104009 11 150 0.0 1.6 0.00 0.00 0.00 87 1008.6
20260506103504 11 144 0.0 6.4 0.00 0.00 0.00 87 1008.5
20260506103021 11 128 0.0 6.4 0.00 0.00 0.00 87 1008.3
20260506102510 10 128 0.0 3.2 0.00 0.00 0.00 88 1008.3
20260506102006 10 132 0.0 1.6 0.00 0.00 0.00 88 1008.4
20260506101533 10 132 0.0 1.6 0.00 0.00 0.00 88 1008.4
20260506101003 10 132 0.0 3.2 0.00 0.00 0.00 89 1008.2
20260506100505 10 115 0.0 3.2 0.00 0.00 0.00 89 1008.1
20260506100019 10 115 0.0 3.2 0.00 0.00 0.00 89 1008.2
20260506095506 10 157 0.0 3.2 0.00 0.00 0.00 88 1008.3
20260506095007 10 119 0.0 3.2 0.00 0.00 0.00 88 1008.2
20260506094524 10 119 0.0 3.2 0.00 0.00 0.00 88 1008.0
20260506094008 10 154 0.0 1.6 0.00 0.00 0.00 87 1008.1
20260506093510 10 154 0.0 1.6 0.00 0.00 0.00 87 1008.0
20260506093033 10 154 0.0 1.6 0.00 0.00 0.00 87 1007.9
20260506092504 10 154 0.0 1.6 0.00 0.00 0.00 86 1008.1
20260506092013 10 154 0.0 1.6 0.00 0.00 0.00 86 1008.0
20260506091525 10 250 0.0 3.2 0.00 0.00 0.00 86 1008.0
20260506091004 10 250 0.0 3.2 0.00 0.00 0.00 86 1008.0
20260506090506 11 179 0.0 3.2 0.00 0.00 0.00 86 1008.0
20260506090026 11 182 0.0 3.2 0.00 0.00 0.00 85 1008.0